Regional Weather Roundup
Issued by NWS

Home | Current Version | Previous Version | Text Only | Print | Product List | Glossary Off
Versions: 1 2 3 4 5 6 7 8 9 10 11 12 13 14 15 16 17 18 19 20 21 22 23 24 25 26 27 28 29 30 31 32 33 34 35 36 37 38 39 40 41 42 43 44 45 46 47 48 49 50

000
ASUS43 KBIS 260802
RWRND

NORTH DAKOTA REGIONAL WEATHER ROUNDUP
NATIONAL WEATHER SERVICE BISMARCK ND
300 AM CDT SUN MAR 26 2017

NOTE: "FAIR" INDICATES FEW OR NO CLOUDS BELOW 12,000 FEET WITH NO
SIGNIFICANT WEATHER AND/OR OBSTRUCTIONS TO VISIBILITY.


NDZ001>003-009>011-017-260900-
NORTHWEST NORTH DAKOTA

CITY           SKY/WX    TMP DP  RH WIND       PRES   REMARKS
WILLISTON      FAIR      44  34  67 NE6       29.90S
MINOT          CLOUDY    41  35  79 SW3       29.90R
MINOT AFB      CLOUDY    36  34  90 CALM      29.89S
$$

NDZ018>021-031>035-040>046-260900-
SOUTHWEST NORTH DAKOTA

CITY           SKY/WX    TMP DP  RH WIND       PRES   REMARKS
BISMARCK       CLOUDY    41  35  79 S7        29.93S
DICKINSON      CLOUDY    46  30  53 NE7       29.89R
GARRISON         N/A     39  32  76 CALM      29.90S
HETTINGER ARPT CLOUDY    41  36  82 N3        29.91R
$$

NDZ004>008-012>016-024-026-027-054-260900-
NORTHEAST NORTH DAKOTA

CITY           SKY/WX    TMP DP  RH WIND       PRES   REMARKS
GRAND FORKS    CLOUDY    34  33  96 S10       29.98F
GRND FRKS AFB  CLOUDY    35  34  95 S12       29.97F
DEVILS LAKE    CLOUDY    34  32  92 S6        29.94S
$$

NDZ022-023-025-028>030-036>039-047>053-260900-
SOUTHEAST NORTH DAKOTA

CITY           SKY/WX    TMP DP  RH WIND       PRES   REMARKS
FARGO          CLOUDY    35  34  96 CALM      30.00R
JAMESTOWN      FOG       33  33 100 S8        29.95S VSB 1/2
$$





USA.gov is the U.S. government's official web portal to all federal, state and local government web resources and services.